[[{"header":{"parameterUnit":"m.s-1","parameterCategory":1,"la1":30.2991,"la2":30.254,"lo1":-89.0895,"lo2":-89.0444,"dy":0.0017,"dx":0.0017,"nx":28,"ny":28,"refTime":"2024-04-01T03:00:00:Z","depth":0,"parameterNumber":2,"parameterNumberName":"U-component_of_WINDS"},"data":[0,0,0,0,0,0,0,0,0,0,0,0,0,0,0,0,0,0,0,0,0,0,0,0,0,0,0,0,0,0,0,0,0,0,0,0,0,0,0,0,0,0,0,0,0,0,0,0,0,0,0,0,0,0,0,0,0,0,-2.8762,-2.8762,0,-2.8825,-2.8826,-2.8826,-2.8805,-2.8804,-2.8803,-2.8801,-2.8864,-2.8867,-2.8869,0,0,0,0,0,0,0,0,0,0,0,0,0,-2.8621,-2.8623,-2.8762,-2.8762,-2.8763,-2.8825,-2.8826,-2.8827,-2.8806,-2.8804,-2.8802,-2.8801,-2.8863,-2.8866,-2.887,0,0,0,0,0,0,0,0,0,0,0,0,0,-2.8683,-2.8624,-2.8762,-2.876,-2.8761,-2.8825,-2.8826,-2.8827,-2.8806,-2.8804,-2.8802,-2.88,-2.8862,-2.8866,-2.887,-2.8938,0,0,-2.8884,-2.8886,0,0,0,0,0,0,0,0,-2.8679,-2.8688,-2.876,-2.8761,-2.8761,-2.8805,-2.8799,-2.8864,-2.8807,-2.8789,-2.8801,-2.8799,-2.8846,-2.8851,-2.8868,-2.8941,-2.8944,-2.8884,-2.8887,-2.8889,-2.889,0,0,0,0,0,0,0,-2.8675,-2.8685,-2.8787,-2.8761,-2.8762,-2.8756,-2.8762,-2.8811,-2.8828,-2.879,-2.8789,-2.8797,-2.8846,-2.8863,-2.8869,-2.8945,-2.8884,-2.8888,-2.889,-2.8892,-2.9076,-2.9078,0,0,0,0,0,0,-2.867,-2.8681,-2.8785,-2.8788,-2.8714,-2.876,-2.8767,-2.8793,-2.8827,-2.8831,-2.8798,-2.8796,-2.8857,-2.8864,-2.8871,-2.8951,-2.8889,-2.8893,-2.8895,-2.9074,-2.9076,-2.9079,0,0,0,0,0,0,-2.8667,-2.868,-2.8782,-2.8735,-2.8747,-2.8765,-2.8794,-2.8795,-2.8813,-2.8834,-2.8836,-2.8813,-2.8856,-2.8865,-2.8921,-2.8953,-2.8895,-2.8899,-2.9071,-2.9075,-2.9078,-2.9113,0,0,0,0,0,0,-2.8664,-2.8679,-2.8705,-2.8735,-2.875,-2.8832,-2.8796,-2.8798,-2.8821,-2.8818,-2.8848,-2.8851,-2.8855,-2.8915,-2.8926,-2.8958,-2.8902,-2.9068,-2.9073,-2.9077,-2.9109,-2.9117,-2.9124,0,0,0,0,0,-2.8659,-2.8712,-2.8707,-2.8719,-2.8783,-2.8834,-2.8842,-2.8845,-2.8824,-2.885,-2.8863,-2.885,-2.8949,-2.8921,-2.8933,-2.8967,-2.9066,-2.9071,-2.9076,-2.9106,-2.9116,-2.9124,0,0,0,0,0,0,-2.8684,-2.8716,-2.871,-2.8776,-2.8803,-2.883,-2.8863,-2.8856,-2.8889,-2.8884,-2.8887,-2.8894,-2.8951,-2.8965,-2.8934,-2.9034,-2.9004,-2.9012,-2.9022,-2.9032,-2.904,-2.9034,-2.8906,0,0,0,0,0,-2.8698,-2.8737,-2.8763,-2.8818,-2.8832,-2.8846,-2.8868,-2.8868,-2.8896,-2.8906,-2.8924,-2.895,-2.8987,-2.9011,-2.9046,-2.9112,-2.9118,-2.9142,-2.9149,-2.9155,-2.9161,-2.9196,-2.9206,-2.9096,-2.9095,-2.9095,0,0,-2.8726,-2.8748,-2.8773,-2.8824,-2.8845,-2.8884,-2.8855,-2.8898,-2.8927,-2.8913,-2.8967,-2.8981,-2.901,-2.9072,-2.91,-2.9085,-2.9193,-2.9162,-2.9167,-2.9169,-2.9202,-2.9213,-2.9222,-2.9099,-2.9098,-2.9098,0,0,-2.8796,-2.8818,-2.8866,-2.8887,-2.892,-2.8928,-2.894,-2.897,-2.8978,-2.9033,-2.9023,-2.9057,-2.9121,-2.9142,-2.9161,-2.9241,-2.923,-2.9252,-2.9291,-2.9325,-2.9333,-2.9341,-2.9367,-2.9377,-2.9259,-2.9259,-2.9259,0,-2.8826,-2.8886,-2.8891,-2.8935,-2.8957,-2.8948,-2.8995,-2.9016,-2.9057,-2.9072,-2.9056,-2.9136,-2.9155,-2.922,-2.924,-2.9257,-2.9269,-2.9247,-2.9332,-2.934,-2.9347,-2.9372,-2.9382,-2.9261,-2.9261,-2.9261,-2.926,0,-2.892,-2.8962,-2.8997,-2.9038,-2.9064,-2.911,-2.9121,-2.9147,-2.9146,-2.9157,-2.9212,-2.9236,-2.9274,-2.9291,-2.929,-2.9356,-2.9346,-2.9331,-2.93,-2.936,-2.9383,-2.9393,-2.9264,-2.9264,-2.9263,-2.9262,0,0,-2.9006,-2.905,-2.9063,-2.9081,-2.9116,-2.9148,-2.9193,-2.9232,-2.9254,-2.9284,-2.932,-2.9375,-2.9361,-2.9383,-2.9385,-2.9415,-2.9474,-2.9396,-2.9397,-2.9408,-2.9547,-2.9556,-2.9567,-2.9469,-2.9471,-2.9472,-2.9544,0,-2.9077,-2.9157,-2.9163,-2.9234,-2.9272,-2.9264,-2.9304,-2.9329,-2.9341,-2.9374,-2.9387,-2.9424,-2.9405,-2.9417,-2.9447,-2.9461,-2.9502,-2.9456,-2.9501,-2.9502,-2.9491,-2.958,-2.9589,-2.9655,-2.9553,-2.9555,-2.9556,0,-2.917,-2.9203,-2.9278,-2.9308,-2.9324,-2.9359,-2.9395,-2.9428,-2.9457,-2.9463,-2.9488,-2.9485,-2.9531,-2.9501,-2.9563,-2.9532,-2.9551,-2.9561,-2.9563,-2.9565,-2.953,-2.9581,-2.9677,-2.9685,-2.9571,-2.957,-2.9568,0,-2.9222,-2.9285,-2.9338,-2.9355,-2.9391,-2.9416,-2.9432,-2.9459,-2.9482,-2.9514,-2.9528,-2.9565,-2.9585,-2.9613,-2.962,-2.9598,-2.9681,-2.9652,-2.9686,-2.9686,-2.9701,-2.9699,-2.9798,-2.9719,-2.9718,-2.9718,-2.9718,0,-2.9299,-2.9345,-2.9362,-2.9394,-2.9445,-2.9452,-2.9502,-2.9517,-2.9541,-2.9575,-2.9572,-2.9604,-2.9613,-2.9647,-2.9653,-2.9702,-2.9712,-2.9717,-2.9717,-2.9716,-2.9715,-2.9726,-2.972,-2.9721,-2.972,-2.972,-2.9719,0,-2.9364,-2.9378,-2.9434,-2.9465,-2.9474,-2.951,-2.9536,-2.9566,-2.9578,-2.9621,-2.9632,-2.965,-2.9689,-2.9701,-2.9748,-2.9752,-2.9809,-2.9807,-2.9799,-2.9798,-2.9831,-2.9826,-2.9938,-2.9952,-2.9865,-2.9866,-2.9867,0,-2.9411,-2.9446,-2.9481,-2.9504,-2.9521,-2.9559,-2.9582,-2.9591,-2.9616,-2.9652,-2.9677,-2.9717,-2.9748,-2.9812,-2.9828,-2.9864,-2.9861,-2.9898,-2.9866,-2.9863,-2.9859,-2.9855,-2.9858,-2.9903,-2.9904,-2.9904,-2.9905,0,-2.9491,-2.9497,-2.9531,-2.9569,-2.9597,-2.9627,-2.9655,-2.9674,-2.9687,-2.9715,-2.9755,-2.978,-2.9829,-2.9867,-2.9904,-2.992,-2.9914,-2.9915,-2.9924,-2.9921,-2.9914,-2.9916,-2.9813,-2.9912,-2.9911,-2.9911,-2.991,-2.991,-2.9547,-2.9577,-2.9606,-2.9645,-2.9668,-2.9694,-2.9724,-2.974,-2.9775,-2.9815,-2.9819,-2.9862,-2.989,-2.9939,-2.9957,-2.9991,-2.998,-2.9994,-2.9997,-2.9999,-3.0001,-2.9912,-2.9998,-2.9998,-2.9998,-2.9997,-2.9997,0,-2.9625,-2.9644,-2.968,-2.9719,-2.975,-2.9744,-2.9775,-2.98,-2.9839,-2.9866,-2.9897,-2.9944,-2.9981,-3.0002,-3.0039,-3.0062,-3.006,-3.0071,-3.0068,-3.0071,-3.001,-2.9997,-3.0072,-3.0072,-3.0072,-3.0072,-3.0072,-3.0072,-2.9669,-2.9719,-2.9728,-2.979,-2.9808,-2.9851,-2.9869,-2.9894,-2.9915,-2.9967,-2.9999,-3.0012,-3.0037,-3.0076,-3.0109,-3.0115,-3.0127,-3.0139,-3.0142,-3.0084,-3.0076,-3.0068,-3.0056,-3.0142,-3.0143,-3.0201,-3.0201,-3.0202]},{"header":{"parameterUnit":"m.s-1","parameterCategory":1,"la1":30.2991,"la2":30.254,"lo1":-89.0895,"lo2":-89.0444,"dy":0.0017,"dx":0.0017,"nx":28,"ny":28,"refTime":"2024-04-01T03:00:00:Z","depth":0,"parameterNumber":3,"parameterNumberName":"V-component_of_WINDS"},"data":[0,0,0,0,0,0,0,0,0,0,0,0,0,0,0,0,0,0,0,0,0,0,0,0,0,0,0,0,0,0,0,0,0,0,0,0,0,0,0,0,0,0,0,0,0,0,0,0,0,0,0,0,0,0,0,0,0,0,4.4375,4.4375,0,4.4354,4.4353,4.4353,4.4361,4.4361,4.4362,4.4362,4.4336,4.4335,4.4333,0,0,0,0,0,0,0,0,0,0,0,0,0,4.4421,4.442,4.4375,4.4375,4.4375,4.4354,4.4353,4.4353,4.4361,4.4362,4.4362,4.4363,4.4336,4.4335,4.4333,0,0,0,0,0,0,0,0,0,0,0,0,0,4.4401,4.442,4.4375,4.4376,4.4376,4.4354,4.4353,4.4353,4.4361,4.4362,4.4362,4.4363,4.4337,4.4335,4.4333,4.4307,0,0,4.4328,4.4327,0,0,0,0,0,0,0,0,4.4402,4.4399,4.4376,4.4376,4.4376,4.4361,4.436,4.4337,4.4361,4.4366,4.4362,4.4363,4.4343,4.4341,4.4335,4.4306,4.4305,4.4327,4.4326,4.4326,4.4325,0,0,0,0,0,0,0,4.4403,4.44,4.4367,4.4376,4.4376,4.4377,4.4375,4.4356,4.4351,4.4366,4.4367,4.4364,4.4343,4.4337,4.4334,4.4304,4.4328,4.4326,4.4325,4.4324,4.4256,4.4255,0,0,0,0,0,0,4.4405,4.4401,4.4367,4.4366,4.4391,4.4376,4.4373,4.4365,4.4351,4.435,4.4364,4.4365,4.4339,4.4336,4.4333,4.4304,4.4326,4.4324,4.4323,4.4256,4.4256,4.4255,0,0,0,0,0,0,4.4406,4.4402,4.4368,4.4384,4.438,4.4374,4.4365,4.4364,4.4358,4.4349,4.4348,4.4358,4.434,4.4336,4.4315,4.4303,4.4323,4.4322,4.4257,4.4256,4.4255,4.4244,0,0,0,0,0,0,4.4407,4.4402,4.4393,4.4383,4.4379,4.435,4.4364,4.4363,4.4355,4.4356,4.4344,4.4342,4.434,4.4317,4.4313,4.4301,4.432,4.4258,4.4257,4.4256,4.4246,4.4243,4.4241,0,0,0,0,0,4.4409,4.4389,4.4392,4.4388,4.4367,4.435,4.4347,4.4346,4.4354,4.4344,4.434,4.4343,4.4305,4.4315,4.431,4.4298,4.4259,4.4257,4.4256,4.4247,4.4243,4.4241,0,0,0,0,0,0,4.4394,4.4387,4.4391,4.4368,4.436,4.4351,4.4338,4.4342,4.433,4.4331,4.433,4.4327,4.4305,4.4299,4.431,4.4273,4.4283,4.4281,4.4278,4.4275,4.4273,4.4274,4.4319,0,0,0,0,0,4.4389,4.4377,4.4371,4.435,4.4347,4.4343,4.4336,4.4336,4.4327,4.4323,4.4316,4.4306,4.4293,4.4283,4.427,4.4245,4.4243,4.4234,4.4232,4.423,4.4227,4.4216,4.4213,4.4249,4.4249,4.4249,0,0,4.4376,4.4371,4.4363,4.4348,4.4341,4.4328,4.434,4.4325,4.4315,4.432,4.4301,4.4296,4.4284,4.4262,4.4251,4.4256,4.4217,4.4228,4.4226,4.4225,4.4214,4.421,4.4207,4.4248,4.4248,4.4248,0,0,4.4347,4.4342,4.4326,4.432,4.4312,4.431,4.4306,4.4298,4.4296,4.4277,4.4281,4.4269,4.4245,4.4237,4.423,4.4203,4.4206,4.4198,4.4185,4.4174,4.4171,4.4168,4.416,4.4157,4.4196,4.4196,4.4196,0,4.4332,4.4314,4.4316,4.4303,4.4296,4.4303,4.4287,4.428,4.4267,4.4262,4.4268,4.4241,4.4233,4.421,4.4204,4.4197,4.4193,4.4199,4.4171,4.4169,4.4166,4.4158,4.4155,4.4195,4.4195,4.4195,4.4195,0,4.4298,4.4285,4.4273,4.4263,4.4255,4.424,4.424,4.4231,4.4233,4.4231,4.4213,4.4205,4.4191,4.4186,4.4186,4.4163,4.4167,4.4172,4.4182,4.4162,4.4155,4.4151,4.4194,4.4194,4.4194,4.4195,0,0,4.4257,4.4251,4.4247,4.4243,4.4236,4.4226,4.4211,4.4201,4.4194,4.4185,4.4174,4.4155,4.4161,4.4153,4.4153,4.4143,4.4124,4.415,4.415,4.4147,4.4101,4.4098,4.4094,4.4127,4.4126,4.4125,4.4102,0,4.4228,4.4205,4.4208,4.4186,4.4175,4.4182,4.417,4.4164,4.4162,4.4153,4.415,4.4138,4.4145,4.4141,4.4132,4.4128,4.4115,4.413,4.4116,4.4115,4.4119,4.409,4.4085,4.4064,4.4099,4.4098,4.4098,0,4.4192,4.4185,4.4162,4.4159,4.4155,4.4144,4.4136,4.4126,4.412,4.4119,4.4113,4.4115,4.4101,4.4112,4.4093,4.4103,4.4098,4.4096,4.4095,4.4093,4.4106,4.4088,4.4057,4.4054,4.4093,4.4094,4.4094,0,4.4167,4.4151,4.4137,4.4133,4.4129,4.4121,4.4119,4.4114,4.4108,4.41,4.4097,4.4087,4.4081,4.4073,4.4073,4.4081,4.4055,4.4065,4.4054,4.4054,4.4048,4.4049,4.4016,4.4043,4.4044,4.4044,4.4044,0,4.4135,4.4121,4.4126,4.4116,4.4102,4.4105,4.409,4.4088,4.4084,4.4075,4.408,4.4071,4.4071,4.4062,4.4062,4.4047,4.4044,4.4044,4.4044,4.4044,4.4044,4.404,4.4042,4.4043,4.4043,4.4043,4.4043,0,4.4104,4.4106,4.4091,4.4089,4.4089,4.4078,4.4076,4.4068,4.4068,4.4056,4.4053,4.4053,4.4042,4.4042,4.4029,4.403,4.4012,4.4014,4.4015,4.4015,4.4005,4.4007,4.3969,4.3965,4.3995,4.3994,4.3994,0,4.4084,4.4074,4.4072,4.4068,4.4066,4.4057,4.4052,4.4056,4.405,4.4044,4.4037,4.4028,4.402,4.4004,4.4002,4.3993,4.3994,4.3982,4.3993,4.3994,4.3996,4.3997,4.3996,4.398,4.398,4.3979,4.3979,0,4.4048,4.4051,4.4045,4.4039,4.4034,4.4029,4.4025,4.402,4.4024,4.4017,4.4008,4.4003,4.3992,4.3983,4.3975,4.3972,4.3976,4.3976,4.3973,4.3973,4.3975,4.3975,4.401,4.3977,4.3977,4.3977,4.3977,4.3977,4.4023,4.4016,4.4014,4.4008,4.4006,4.4002,4.3995,4.3996,4.3989,4.3982,4.3984,4.3974,4.397,4.396,4.3957,4.3949,4.3953,4.3949,4.3948,4.3947,4.3947,4.3976,4.3947,4.3947,4.3948,4.3948,4.3948,0,4.3989,4.399,4.3984,4.3979,4.3974,4.3981,4.3977,4.3972,4.3964,4.3961,4.3955,4.3946,4.3938,4.3937,4.3929,4.3924,4.3925,4.3922,4.3922,4.3922,4.3942,4.3946,4.392,4.392,4.392,4.392,4.392,4.392,4.3971,4.396,4.3963,4.3951,4.3951,4.3943,4.394,4.3938,4.3936,4.3926,4.392,4.392,4.3918,4.3911,4.3905,4.3904,4.3902,4.3897,4.3898,4.3917,4.392,4.3923,4.3926,4.3897,4.3897,4.3878,4.3878,4.3878]}]]